Theta_e
301 301 300 300 300 300 300 300 301 300 300 300 301 305 305 309 310 311 311 310 310 310 309 310 310 310 311 310 311 312 315 311 309 309 309 310 309 308 308 308 308 308 308 309 310
301 300 300 300 300 300 300 300 300 300 300 300 302 306 306 306 310 311 310 310 310 310 310 310 310 310 310 310 309 311 312 309 309 309 309 309 309 309 309 309 309 309 310 310 310
300 300 300 300 300 300 300 300 300 300 300 300 304 307 307 307 311 310 310 310 310 310 309 309 310 311 310 309 308 309 310 309 310 309 308 309 310 309 309 309 310 310 310 311 312
300 300 300 300 300 300 300 300 300 300 300 301 304 306 307 309 316 309 310 310 310 310 311 311 311 310 309 309 308 309 310 310 310 310 310 309 309 310 309 310 310 310 310 309 309
300 300 300 300 300 300 299 300 300 300 300 301 305 306 309 311 308 309 310 311 310 310 310 311 311 310 309 309 310 309 309 310 309 310 310 309 310 310 311 310 310 309 307 305 305
300 300 300 299 299 299 300 300 300 300 300 302 306 307 309 312 308 309 310 310 310 310 309 309 309 309 309 309 309 309 310 309 310 311 311 310 311 312 310 311 310 308 305 305 306
300 300 299 299 299 299 300 300 300 300 301 306 306 307 309 308 308 308 309 310 310 309 309 308 310 311 310 310 309 308 310 309 311 312 311 311 314 311 311 310 308 307 306 305 307
300 299 299 299 299 299 300 300 300 300 302 305 306 306 307 306 307 308 308 309 309 310 309 308 309 309 309 309 308 311 312 316 311 311 311 312 314 311 310 309 308 308 307 305 306
300 299 299 299 299 300 300 300 300 301 303 304 306 310 308 306 307 308 309 309 309 309 310 309 311 310 311 315 316 316 315 313 314 311 312 312 312 311 310 309 308 307 306 306 305
300 299 299 299 300 300 300 299 301 302 305 305 305 308 305 307 306 306 309 309 309 310 313 314 314 313 312 316 317 315 315 315 314 312 310 312 312 311 310 309 308 307 306 306 304
299 299 299 299 300 300 300 300 301 304 302 304 304 306 306 306 306 307 308 309 310 312 314 313 315 313 311 310 310 310 308 308 313 312 311 313 310 312 310 310 308 306 305 305 304
300 299 299 299 299 299 299 301 304 304 303 302 304 305 306 306 308 308 308 311 311 313 311 314 312 311 310 311 312 309 312 312 310 312 311 307 308 313 311 311 309 307 305 305 307
300 299 299 299 299 299 300 301 300 301 306 303 304 305 305 307 307 307 309 310 311 312 312 313 312 310 312 312 312 313 313 311 311 312 313 311 312 309 313 312 310 307 306 304 304
300 300 299 299 299 300 300 300 300 300 315 305 303 304 305 306 308 306 306 309 310 312 311 311 310 311 312 312 310 312 310 309 311 312 312 310 311 314 313 313 311 308 305 304 304
301 300 300 298 304 299 301 298 299 301 317 304 303 304 304 307 307 307 305 309 310 310 310 310 310 310 311 309 308 311 309 310 311 313 312 310 311 315 314 314 311 307 305 303 302
304 300 301 298 301 301 300 298 300 312 313 302 304 306 306 306 306 307 307 306 308 309 309 308 307 308 308 308 307 308 309 313 313 312 312 308 311 314 314 313 312 307 305 303 303
305 301 301 298 299 299 298 299 308 313 303 303 305 306 307 306 307 309 309 309 312 309 310 308 309 307 306 308 308 309 310 315 313 312 311 307 309 313 312 312 309 305 305 303 302
305 304 301 298 300 298 298 305 308 310 306 301 305 305 306 306 306 308 308 308 307 308 309 312 314 308 306 308 308 310 309 310 312 311 308 307 309 311 310 311 308 305 304 303 302
304 304 301 297 298 297 303 307 310 309 304 304 304 307 305 304 305 307 310 309 307 307 314 310 308 306 307 307 308 310 309 307 310 302 308 308 308 307 308 308 309 306 304 303 302
305 303 299 297 297 298 302 307 304 300 303 304 309 307 306 305 305 307 307 307 306 306 306 306 310 306 307 306 307 309 307 310 309 306 308 307 307 305 307 308 308 306 304 303 302
305 299 298 297 296 300 303 304 300 298 301 304 307 300 308 303 306 308 307 304 306 305 306 307 308 307 306 308 307 308 309 307 306 307 309 307 306 307 309 307 308 307 305 303 302
302 301 297 296 301 298 302 300 298 298 300 301 302 304 305 303 306 307 305 305 305 305 307 306 308 309 307 305 305 307 308 308 307 308 305 307 303 307 308 308 311 308 306 304 302
299 298 296 297 301 301 295 296 296 298 300 301 301 303 303 304 302 305 304 301 302 305 306 306 305 307 310 308 305 306 307 308 306 305 307 308 308 306 306 307 310 308 305 304 303
299 300 297 296 300 302 299 299 296 297 301 301 301 301 302 300 298 301 303 301 300 304 303 304 305 308 311 309 306 307 307 306 306 306 309 305 306 304 304 305 307 309 306 304 303
301 301 297 296 297 302 302 299 298 296 298 300 300 302 302 299 301 300 301 300 300 303 303 302 300 299 302 303 303 303 303 305 306 306 305 307 305 305 305 304 307 307 306 304 302
303 300 298 299 298 302 303 299 300 300 298 298 300 301 303 300 304 300 302 301 301 302 302 301 299 295 296 298 299 300 299 301 302 304 306 306 305 305 306 306 307 307 307 304 303
304 306 305 302 300 301 302 302 302 300 300 301 301 301 301 301 301 301 301 302 301 301 297 298 293 297 304 295 295 301 299 297 299 301 302 303 304 305 305 305 306 307 307 305 304
Wind_Speed
6 6 7 8 8 8 9 9 9 8 8 8 7 6 2 10 18 11 14 16 14 9 6 16 11 6 8 8 8 7 2 4 5 7 8 17 9 13 13 14 18 15 18 26 31
6 7 7 7 8 8 9 8 9 8 8 7 6 6 2 2 9 13 14 15 11 9 9 8 7 9 5 6 7 7 4 5 6 6 7 12 13 15 13 19 17 26 30 31 28
7 7 7 7 7 7 8 8 8 8 7 6 5 6 3 4 6 7 10 12 11 9 8 7 6 5 8 9 10 7 4 2 7 7 9 11 12 19 15 11 23 27 32 33 25
8 7 7 7 6 6 6 7 7 7 6 5 3 6 5 4 1 3 8 10 13 12 9 8 4 2 4 5 4 5 7 5 4 7 7 9 13 14 15 19 27 28 27 29 29
9 7 7 6 6 6 6 6 6 6 5 4 2 1 3 5 2 2 6 9 12 12 9 8 8 7 5 6 11 10 5 1 4 7 7 8 15 6 19 29 27 29 30 30 31
10 8 7 6 5 6 6 6 5 4 4 3 1 3 4 0 1 1 5 8 11 14 13 10 10 11 10 5 6 5 3 1 3 9 5 7 12 11 24 27 29 32 32 28 26
10 9 7 6 5 5 6 5 4 3 2 3 5 5 4 3 1 0 3 7 10 11 13 12 9 4 4 6 5 4 3 6 6 11 2 11 6 10 20 29 29 33 30 32 31
11 10 7 6 5 4 4 5 3 2 0 3 2 3 3 3 1 2 2 4 7 7 12 11 13 9 6 7 3 3 2 3 6 10 3 8 4 10 18 20 24 31 33 35 33
12 10 9 7 5 4 4 2 1 1 1 3 2 5 1 1 2 3 3 2 4 7 8 8 9 5 2 1 2 5 2 2 2 8 6 7 4 4 13 15 20 28 34 34 32
12 11 9 8 5 4 2 1 2 2 4 4 5 2 2 0 2 3 2 3 4 3 4 5 1 3 5 3 1 2 4 3 3 6 7 6 6 4 12 15 16 23 28 36 34
13 12 10 8 6 4 3 6 2 2 1 3 1 3 2 2 3 4 2 4 5 1 1 2 4 5 6 7 4 4 3 4 4 5 5 4 6 4 9 15 16 19 28 31 32
14 14 12 9 6 5 7 4 4 3 4 3 4 3 3 3 1 7 2 2 3 3 1 1 5 5 5 3 3 4 1 4 8 4 2 5 7 4 3 6 14 14 24 31 39
16 15 13 9 7 6 8 6 4 7 1 1 3 2 3 4 2 4 3 1 4 4 4 5 6 5 1 2 5 6 3 3 4 6 3 6 2 4 2 10 14 17 19 24 31
19 15 13 9 5 6 6 6 8 6 2 5 3 1 1 4 2 3 3 2 1 4 5 6 4 1 2 3 4 2 6 6 7 7 2 2 3 1 3 5 8 16 22 23 28
19 17 14 14 6 8 4 8 8 3 2 2 3 3 4 1 4 2 4 3 4 5 2 2 5 2 3 3 4 3 4 5 5 4 5 4 2 2 5 6 7 14 19 21 21
21 19 15 16 9 7 8 10 8 4 6 3 4 4 5 3 1 2 0 3 3 2 4 4 2 2 5 3 4 4 5 3 2 3 2 4 2 2 3 2 5 11 16 18 22
21 19 18 17 12 10 13 12 4 3 4 3 4 5 4 4 3 3 4 1 2 4 1 2 3 4 1 4 4 5 5 1 3 3 2 4 3 1 5 5 5 6 11 13 14
24 20 20 16 12 16 19 4 2 0 4 2 3 6 3 4 1 4 4 3 1 2 3 3 3 1 2 3 1 2 2 3 0 2 4 2 4 3 6 7 5 4 5 7 10
25 21 18 18 14 21 10 2 6 5 7 9 4 4 2 2 1 4 2 2 2 2 3 3 2 1 1 2 2 1 3 0 0 1 1 3 2 4 6 6 6 2 2 2 5
28 20 17 19 20 20 3 5 3 4 2 5 4 3 5 5 6 3 7 1 3 1 5 2 4 1 1 3 2 1 2 1 1 3 3 3 2 3 7 8 8 8 7 5 3
28 12 15 21 23 9 3 5 3 5 0 4 3 4 3 6 4 5 7 2 1 4 2 1 2 1 3 2 1 2 3 2 2 1 1 4 4 4 4 8 9 14 14 10 8
25 3 22 29 6 3 4 4 3 4 3 2 1 5 5 5 4 4 5 3 5 7 4 2 2 3 3 2 5 4 1 1 3 2 2 1 6 0 3 7 11 17 16 12 10
27 7 25 28 5 4 2 2 2 4 4 6 2 2 1 5 4 3 3 3 5 2 3 4 1 2 4 2 2 5 4 3 4 3 5 4 5 2 1 1 9 16 19 19 16
19 5 6 11 6 6 6 4 4 5 3 3 4 4 4 3 4 5 3 2 3 2 1 1 1 3 3 3 3 3 5 6 5 4 3 6 5 5 7 8 13 16 21 21 21
19 7 15 8 8 6 7 9 7 6 5 8 1 4 6 4 2 2 4 3 0 3 1 3 2 2 3 4 3 3 5 9 9 7 6 4 5 5 4 9 20 22 20 23 24
20 8 10 9 24 9 10 9 11 7 8 6 4 8 4 5 4 8 8 5 5 5 4 1 2 1 3 3 2 6 9 10 8 9 14 14 22 14 21 22 17 22 24 26 27
30 21 18 16 10 13 8 9 12 13 7 5 9 8 7 6 21 23 20 15 7 7 4 4 5 2 4 1 4 6 7 11 6 6 8 8 10 6 4 3 8 17 25 29 29
Wind_Direction
291 303 312 319 326 335 339 344 339 347 355 356 356 9 87 48 48 44 33 16 14 21 48 40 11 44 37 38 33 333 21 58 32 11 335 355 345 334 330 310 324 310 305 320 318
280 291 301 310 321 331 333 339 336 344 351 355 357 3 63 88 61 28 21 12 24 28 57 65 30 41 53 34 17 1 62 48 41 0 339 335 343 330 336 325 318 330 320 315 311
274 285 294 301 313 326 331 335 335 339 348 358 11 16 66 81 81 7 13 21 33 41 46 50 57 58 65 54 16 16 74 87 34 8 338 335 340 335 318 333 346 331 318 318 316
266 274 284 292 306 319 326 330 331 336 347 357 20 46 78 47 94 2 19 31 46 39 38 38 44 68 62 61 24 101 64 53 22 358 345 355 330 305 348 345 334 324 319 319 312
257 259 269 281 300 312 321 327 329 339 346 350 11 68 75 54 45 38 30 40 47 33 54 87 73 69 87 91 78 91 125 98 7 353 18 347 326 325 359 343 336 337 331 330 318
247 252 259 270 288 305 313 323 334 339 345 344 39 89 84 128 312 15 46 42 40 46 56 90 79 91 81 54 32 96 139 58 338 12 65 338 324 19 346 351 348 343 340 338 339
241 243 247 261 279 296 310 327 331 335 356 73 100 100 60 147 206 94 67 44 42 54 59 75 60 59 109 112 96 142 228 218 63 15 71 319 93 30 355 360 355 346 354 352 359
238 241 243 253 268 286 312 321 329 338 349 182 102 75 79 112 80 39 73 47 43 55 62 73 83 72 54 111 167 257 269 320 88 22 349 354 5 26 355 4 353 353 360 5 11
232 234 236 243 254 283 303 319 348 46 79 151 133 110 61 114 26 12 28 55 61 48 58 60 68 84 91 24 233 29 61 323 72 56 338 42 305 7 357 2 0 358 1 10 18
226 228 231 231 240 259 270 151 119 107 108 112 111 99 128 337 354 1 46 52 63 39 15 28 273 100 32 5 85 15 353 331 354 1 357 349 334 8 355 2 6 7 5 11 11
221 226 224 223 230 231 185 130 112 22 196 125 136 104 131 141 52 6 46 47 47 322 8 77 57 68 60 55 73 67 45 304 269 9 340 13 313 2 7 360 5 21 10 13 8
217 224 219 218 217 216 192 174 210 165 98 94 96 96 150 122 98 2 76 354 252 87 204 77 93 81 68 34 111 115 283 298 286 280 14 320 301 334 27 30 19 28 15 14 22
213 218 218 212 214 213 211 216 232 164 242 139 168 131 167 122 73 339 91 36 356 80 60 67 92 126 301 193 299 184 318 357 311 298 179 276 340 328 123 51 26 29 29 20 28
212 212 214 205 205 219 218 204 169 172 35 152 189 173 91 130 127 36 63 88 137 86 27 82 134 266 272 285 341 290 33 341 322 342 344 85 301 246 104 53 28 26 25 23 28
207 208 204 192 181 182 196 164 164 144 295 73 133 168 141 253 127 10 55 46 44 112 232 140 160 210 260 51 341 24 13 314 309 294 324 33 342 228 177 28 14 26 26 23 29
203 203 202 199 191 178 159 149 139 49 249 130 129 161 169 179 108 133 175 80 126 121 68 93 114 353 4 307 238 322 260 189 263 290 12 33 26 354 16 23 21 23 33 20 19
203 198 201 198 196 174 155 142 55 187 359 209 171 179 214 146 139 229 155 68 152 92 346 190 117 119 269 263 184 234 259 310 360 19 228 21 316 201 137 115 65 33 29 30 31
201 196 199 200 184 163 154 60 181 153 198 232 137 142 169 165 111 183 174 137 204 247 121 165 303 9 6 35 332 317 345 102 187 5 306 341 293 209 119 125 106 78 50 26 40
194 191 199 191 177 165 152 133 215 197 156 150 147 121 141 197 229 200 213 92 65 283 132 138 77 115 19 315 312 347 67 99 24 26 52 217 213 88 153 164 171 166 74 55 65
186 184 196 183 171 163 96 243 227 232 140 184 140 170 161 190 166 201 168 70 148 337 331 138 106 26 313 256 207 16 179 126 304 26 318 280 270 249 197 197 181 173 183 198 135
179 163 185 172 163 160 187 222 212 210 109 209 148 124 160 164 168 183 170 310 212 145 285 108 129 284 9 281 346 184 158 146 139 125 285 315 263 347 189 168 174 178 176 187 183
166 145 169 162 136 186 183 180 157 160 188 246 350 114 144 147 163 172 168 69 151 158 156 55 100 120 76 53 344 317 20 167 123 192 213 103 272 329 24 161 169 168 169 187 191
158 129 168 171 170 197 137 122 205 154 194 181 156 123 162 128 114 111 67 334 124 196 152 190 290 83 330 1 279 258 199 205 100 100 219 154 265 150 212 325 184 173 178 185 194
158 129 158 206 228 150 148 177 178 210 221 187 121 105 110 96 348 134 118 176 157 98 145 61 159 180 183 154 124 217 210 209 168 143 219 227 249 212 215 214 209 200 198 200 197
180 182 171 175 221 186 163 146 138 178 226 191 348 208 156 117 105 125 93 116 357 138 273 107 171 22 302 303 185 224 245 208 221 209 181 245 265 273 266 215 216 212 200 200 205
185 154 153 177 170 148 171 200 164 155 152 221 205 173 151 148 177 181 130 185 183 168 185 77 165 94 309 354 297 270 233 231 251 250 255 259 279 274 265 275 221 202 204 201 209
200 185 165 161 154 176 186 173 187 139 215 184 165 125 124 93 83 96 92 94 131 141 145 131 130 94 270 226 313 304 226 192 214 223 221 214 226 270 300 360 221 204 207 211 215